Location: Braden Valley Church
(38.0012°N, 88.6106°W)
Time: 01:31:52
(UTC+00:00)

Cosmos 1655 Rocket - Pass Details

Date: 08 December 2021
Orbit: 970 x 1007 km, 83.0° (Epoch: 21 January)

Event Time Altitude Azimuth Distance (km) Brightness Sun altitude
Rises 23:25:50 0° 1° (N) 3,739 6.8 -10.0°
Reaches altitude 10° 23:28:35 10° 9° (N) 2,782 6.1 -10.5°
Maximum altitude 23:34:31 39° 77° (ENE) 1,453 4.4 -11.6°
Drops below altitude 10° 23:40:21 10° 145° (SE) 2,745 6.2 -12.6°
Sets 23:43:02 0° 153° (SSE) 3,684 6.9 -13.1°
